Time,TemperatureF,DewpointF,PressureIn,WindDirection,WindDirectionDegrees,WindSpeedMPH,WindSpeedGustMPH,Humidity,HourlyPrecipIn,Conditions,Clouds,dailyrainin,SoftwareType,DateUTC
2013-10-11 00:01:00,50.0,50.0,30.22,ESE,112,0.0,0.0,100,0.00,,,0.00,WUHU216DAVISWMX,2013-10-11 04:01:00,
2013-10-11 00:06:00,50.0,50.0,30.22,ESE,112,0.0,0.0,100,0.00,,,0.00,WUHU216DAVISWMX,2013-10-11 04:06:00,
2013-10-11 00:11:00,49.8,49.8,30.22,ESE,112,0.0,0.0,100,0.00,,,0.00,WUHU216DAVISWMX,2013-10-11 04:11:00,
2013-10-11 00:16:00,49.8,49.8,30.22,ESE,112,0.0,0.0,100,0.00,,,0.00,WUHU216DAVISWMX,2013-10-11 04:16:00,
2013-10-11 00:21:00,49.7,49.7,30.22,ESE,112,0.0,0.0,100,0.00,,,0.00,WUHU216DAVISWMX,2013-10-11 04:21:00,
2013-10-11 00:26:00,49.5,49.5,30.21,ESE,112,0.0,0.0,100,0.00,,,0.00,WUHU216DAVISWMX,2013-10-11 04:26:00,
2013-10-11 00:31:00,49.3,49.3,30.21,ESE,112,0.0,0.0,100,0.00,,,0.00,WUHU216DAVISWMX,2013-10-11 04:31:00,
2013-10-11 00:36:00,49.2,49.2,30.21,ESE,112,0.0,0.0,100,0.00,,,0.00,WUHU216DAVISWMX,2013-10-11 04:36:00,
2013-10-11 00:41:00,49.1,49.1,30.21,ESE,112,0.0,0.0,100,0.00,,,0.00,WUHU216DAVISWMX,2013-10-11 04:41:00,
2013-10-11 00:46:00,48.9,48.9,30.21,ESE,112,0.0,0.0,100,0.00,,,0.00,WUHU216DAVISWMX,2013-10-11 04:46:00,
2013-10-11 00:51:00,48.9,48.9,30.21,ESE,112,0.0,0.0,100,0.00,,,0.00,WUHU216DAVISWMX,2013-10-11 04:51:00,
2013-10-11 00:56:00,48.8,48.8,30.21,ESE,112,0.0,0.0,100,0.00,,,0.00,WUHU216DAVISWMX,2013-10-11 04:56:00,
2013-10-11 01:01:00,48.6,48.6,30.21,ESE,112,0.0,0.0,100,0.00,,,0.00,WUHU216DAVISWMX,2013-10-11 05:01:00,
2013-10-11 01:06:00,48.5,48.5,30.21,ESE,112,0.0,0.0,100,0.00,,,0.00,WUHU216DAVISWMX,2013-10-11 05:06:00,
2013-10-11 01:11:00,48.6,48.6,30.21,ESE,112,0.0,0.0,100,0.00,,,0.00,WUHU216DAVISWMX,2013-10-11 05:11:00,
2013-10-11 01:16:00,48.5,48.5,30.21,ESE,112,0.0,0.0,100,0.00,,,0.00,WUHU216DAVISWMX,2013-10-11 05:16:00,
2013-10-11 01:21:00,48.5,48.5,30.21,ESE,112,0.0,0.0,100,0.00,,,0.00,WUHU216DAVISWMX,2013-10-11 05:21:00,
2013-10-11 01:26:00,48.4,48.4,30.20,ESE,112,0.0,0.0,100,0.00,,,0.00,WUHU216DAVISWMX,2013-10-11 05:26:00,
2013-10-11 01:31:00,48.2,48.2,30.20,ESE,112,0.0,0.0,100,0.00,,,0.00,WUHU216DAVISWMX,2013-10-11 05:31:00,
2013-10-11 01:36:00,48.2,48.2,30.20,ESE,112,0.0,0.0,100,0.00,,,0.00,WUHU216DAVISWMX,2013-10-11 05:36:00,
2013-10-11 01:41:00,48.0,48.0,30.20,ESE,112,0.0,0.0,100,0.00,,,0.00,WUHU216DAVISWMX,2013-10-11 05:41:00,
2013-10-11 01:46:00,47.8,47.8,30.20,ESE,112,0.0,0.0,100,0.00,,,0.00,WUHU216DAVISWMX,2013-10-11 05:46:00,
2013-10-11 01:51:00,47.7,47.7,30.20,ESE,112,0.0,0.0,100,0.00,,,0.00,WUHU216DAVISWMX,2013-10-11 05:51:00,
2013-10-11 01:56:00,47.5,47.5,30.19,ESE,112,0.0,0.0,100,0.00,,,0.00,WUHU216DAVISWMX,2013-10-11 05:56:00,
2013-10-11 02:01:00,47.5,47.5,30.19,ESE,112,0.0,0.0,100,0.00,,,0.00,WUHU216DAVISWMX,2013-10-11 06:01:00,
2013-10-11 02:06:00,47.3,47.3,30.19,ESE,112,0.0,0.0,100,0.00,,,0.00,WUHU216DAVISWMX,2013-10-11 06:06:00,
2013-10-11 02:11:00,47.2,47.2,30.19,ESE,112,0.0,0.0,100,0.00,,,0.00,WUHU216DAVISWMX,2013-10-11 06:11:00,
2013-10-11 02:16:00,47.0,47.0,30.19,ESE,112,0.0,0.0,100,0.00,,,0.00,WUHU216DAVISWMX,2013-10-11 06:16:00,
2013-10-11 02:21:00,46.9,46.9,30.19,ESE,112,0.0,0.0,100,0.00,,,0.00,WUHU216DAVISWMX,2013-10-11 06:21:00,
2013-10-11 02:26:00,46.7,46.7,30.19,ESE,112,0.0,0.0,100,0.00,,,0.00,WUHU216DAVISWMX,2013-10-11 06:26:00,
2013-10-11 02:31:00,46.6,46.6,30.18,ESE,112,0.0,0.0,100,0.00,,,0.00,WUHU216DAVISWMX,2013-10-11 06:31:00,
2013-10-11 02:36:00,46.5,46.5,30.18,ESE,112,0.0,0.0,100,0.00,,,0.00,WUHU216DAVISWMX,2013-10-11 06:36:00,
2013-10-11 02:41:00,46.4,46.4,30.18,ESE,112,0.0,0.0,100,0.00,,,0.00,WUHU216DAVISWMX,2013-10-11 06:41:00,
2013-10-11 02:46:00,46.2,46.2,30.18,ESE,112,0.0,0.0,100,0.00,,,0.00,WUHU216DAVISWMX,2013-10-11 06:46:00,
2013-10-11 02:51:00,46.1,46.1,30.17,ESE,112,0.0,0.0,100,0.00,,,0.00,WUHU216DAVISWMX,2013-10-11 06:51:00,
2013-10-11 02:56:00,46.1,46.1,30.18,ESE,112,0.0,0.0,100,0.00,,,0.00,WUHU216DAVISWMX,2013-10-11 06:56:00,
2013-10-11 03:01:00,46.1,46.1,30.18,ESE,112,0.0,0.0,100,0.00,,,0.00,WUHU216DAVISWMX,2013-10-11 07:01:00,
2013-10-11 03:06:00,46.0,46.0,30.18,ESE,112,0.0,0.0,100,0.00,,,0.00,WUHU216DAVISWMX,2013-10-11 07:06:00,
2013-10-11 03:11:00,45.9,45.9,30.18,ESE,112,0.0,0.0,100,0.00,,,0.00,WUHU216DAVISWMX,2013-10-11 07:11:00,
2013-10-11 03:16:00,45.8,45.8,30.18,ESE,112,0.0,0.0,100,0.00,,,0.00,WUHU216DAVISWMX,2013-10-11 07:16:00,
2013-10-11 03:21:00,45.7,45.7,30.18,ESE,112,0.0,0.0,100,0.00,,,0.00,WUHU216DAVISWMX,2013-10-11 07:21:00,
2013-10-11 03:26:00,45.6,45.6,30.18,ESE,112,0.0,0.0,100,0.00,,,0.00,WUHU216DAVISWMX,2013-10-11 07:26:00,
2013-10-11 03:31:00,45.6,45.6,30.18,ESE,112,0.0,0.0,100,0.00,,,0.00,WUHU216DAVISWMX,2013-10-11 07:31:00,
2013-10-11 03:36:00,45.6,45.6,30.18,ESE,112,0.0,0.0,100,0.00,,,0.00,WUHU216DAVISWMX,2013-10-11 07:36:00,
2013-10-11 03:41:00,45.6,45.6,30.18,ESE,112,0.0,0.0,100,0.00,,,0.00,WUHU216DAVISWMX,2013-10-11 07:41:00,
2013-10-11 03:46:00,45.6,45.6,30.18,ESE,112,0.0,0.0,100,0.00,,,0.00,WUHU216DAVISWMX,2013-10-11 07:46:00,
2013-10-11 03:51:00,45.6,45.6,30.18,ESE,112,0.0,0.0,100,0.00,,,0.00,WUHU216DAVISWMX,2013-10-11 07:51:00,
2013-10-11 03:56:00,45.6,45.6,30.18,ESE,112,0.0,0.0,100,0.00,,,0.00,WUHU216DAVISWMX,2013-10-11 07:56:00,
2013-10-11 04:01:00,45.6,45.6,30.18,ESE,112,0.0,0.0,100,0.00,,,0.00,WUHU216DAVISWMX,2013-10-11 08:01:00,
2013-10-11 04:06:00,45.6,45.6,30.18,ESE,112,0.0,0.0,100,0.00,,,0.00,WUHU216DAVISWMX,2013-10-11 08:06:00,
2013-10-11 04:11:00,45.6,45.6,30.18,ESE,112,0.0,0.0,100,0.00,,,0.00,WUHU216DAVISWMX,2013-10-11 08:11:00,
2013-10-11 04:16:00,45.7,45.7,30.18,ESE,112,0.0,0.0,100,0.00,,,0.00,WUHU216DAVISWMX,2013-10-11 08:16:00,
2013-10-11 04:21:00,45.7,45.7,30.18,ESE,112,0.0,0.0,100,0.00,,,0.00,WUHU216DAVISWMX,2013-10-11 08:21:00,
2013-10-11 04:26:00,45.6,45.6,30.18,ESE,112,0.0,0.0,100,0.00,,,0.00,WUHU216DAVISWMX,2013-10-11 08:26:00,
2013-10-11 04:31:00,45.7,45.7,30.18,ESE,112,0.0,0.0,100,0.00,,,0.00,WUHU216DAVISWMX,2013-10-11 08:31:00,
2013-10-11 04:36:00,45.6,45.6,30.19,ESE,112,0.0,0.0,100,0.00,,,0.00,WUHU216DAVISWMX,2013-10-11 08:36:00,
2013-10-11 04:41:00,45.6,45.6,30.19,ESE,112,0.0,0.0,100,0.00,,,0.00,WUHU216DAVISWMX,2013-10-11 08:41:00,
2013-10-11 04:46:00,45.5,45.5,30.18,ESE,112,0.0,0.0,100,0.00,,,0.00,WUHU216DAVISWMX,2013-10-11 08:46:00,
2013-10-11 04:51:00,45.4,45.4,30.18,ESE,112,0.0,0.0,100,0.00,,,0.00,WUHU216DAVISWMX,2013-10-11 08:51:00,
2013-10-11 04:56:00,45.2,45.2,30.18,ESE,112,0.0,0.0,100,0.00,,,0.00,WUHU216DAVISWMX,2013-10-11 08:56:00,
2013-10-11 05:01:00,45.2,45.2,30.18,ESE,112,0.0,0.0,100,0.00,,,0.00,WUHU216DAVISWMX,2013-10-11 09:01:00,
2013-10-11 05:06:00,45.1,45.1,30.18,ESE,112,0.0,0.0,100,0.00,,,0.00,WUHU216DAVISWMX,2013-10-11 09:06:00,
2013-10-11 05:11:00,45.0,45.0,30.18,ESE,112,0.0,0.0,100,0.00,,,0.00,WUHU216DAVISWMX,2013-10-11 09:11:00,
2013-10-11 05:16:00,44.9,44.9,30.18,ESE,112,0.0,0.0,100,0.00,,,0.00,WUHU216DAVISWMX,2013-10-11 09:16:00,
2013-10-11 05:22:00,44.8,44.8,30.18,ESE,112,0.0,0.0,100,0.00,,,0.00,WUHU216DAVISWMX,2013-10-11 09:22:00,
2013-10-11 05:27:00,44.7,44.7,30.19,ESE,112,0.0,0.0,100,0.00,,,0.00,WUHU216DAVISWMX,2013-10-11 09:27:00,
2013-10-11 05:32:00,44.6,44.6,30.19,ESE,112,0.0,0.0,100,0.00,,,0.00,WUHU216DAVISWMX,2013-10-11 09:32:00,
2013-10-11 05:37:00,44.5,44.5,30.19,ESE,112,0.0,0.0,100,0.00,,,0.00,WUHU216DAVISWMX,2013-10-11 09:37:00,
2013-10-11 05:42:00,44.4,44.4,30.19,ESE,112,0.0,0.0,100,0.00,,,0.00,WUHU216DAVISWMX,2013-10-11 09:42:00,
2013-10-11 05:47:00,44.4,44.4,30.19,ESE,112,0.0,0.0,100,0.00,,,0.00,WUHU216DAVISWMX,2013-10-11 09:47:00,
2013-10-11 05:52:00,44.2,44.2,30.19,ESE,112,0.0,0.0,100,0.00,,,0.00,WUHU216DAVISWMX,2013-10-11 09:52:00,
2013-10-11 05:57:00,44.1,44.1,30.19,ESE,112,0.0,0.0,100,0.00,,,0.00,WUHU216DAVISWMX,2013-10-11 09:57:00,
2013-10-11 06:02:00,44.0,44.0,30.19,ESE,112,0.0,0.0,100,0.00,,,0.00,WUHU216DAVISWMX,2013-10-11 10:02:00,
2013-10-11 06:07:00,43.9,43.9,30.19,ESE,112,0.0,0.0,100,0.00,,,0.00,WUHU216DAVISWMX,2013-10-11 10:07:00,
2013-10-11 06:12:00,43.8,43.8,30.19,ESE,112,0.0,0.0,100,0.00,,,0.00,WUHU216DAVISWMX,2013-10-11 10:12:00,
2013-10-11 06:17:00,43.7,43.7,30.19,ESE,112,0.0,0.0,100,0.00,,,0.00,WUHU216DAVISWMX,2013-10-11 10:17:00,
2013-10-11 06:22:00,43.6,43.6,30.19,ESE,112,0.0,0.0,100,0.00,,,0.00,WUHU216DAVISWMX,2013-10-11 10:22:00,
2013-10-11 06:27:00,43.6,43.6,30.19,ESE,112,0.0,0.0,100,0.00,,,0.00,WUHU216DAVISWMX,2013-10-11 10:27:00,
2013-10-11 06:32:00,43.7,43.7,30.19,ESE,112,0.0,0.0,100,0.00,,,0.00,WUHU216DAVISWMX,2013-10-11 10:32:00,
2013-10-11 06:37:00,43.9,43.9,30.19,ESE,112,0.0,0.0,100,0.00,,,0.00,WUHU216DAVISWMX,2013-10-11 10:37:00,
2013-10-11 06:42:00,43.9,43.9,30.20,ESE,112,0.0,0.0,100,0.00,,,0.00,WUHU216DAVISWMX,2013-10-11 10:42:00,
2013-10-11 06:47:00,44.1,44.1,30.19,ESE,112,0.0,0.0,100,0.00,,,0.00,WUHU216DAVISWMX,2013-10-11 10:47:00,
2013-10-11 06:52:00,44.2,44.2,30.19,ESE,112,0.0,0.0,100,0.00,,,0.00,WUHU216DAVISWMX,2013-10-11 10:52:00,
2013-10-11 06:57:00,44.4,44.4,30.19,ESE,112,0.0,0.0,100,0.00,,,0.00,WUHU216DAVISWMX,2013-10-11 10:57:00,
2013-10-11 07:02:00,44.5,44.5,30.19,ESE,112,0.0,0.0,100,0.00,,,0.00,WUHU216DAVISWMX,2013-10-11 11:02:00,
2013-10-11 07:07:00,44.6,44.6,30.19,ESE,112,0.0,0.0,100,0.00,,,0.00,WUHU216DAVISWMX,2013-10-11 11:07:00,
2013-10-11 07:12:00,44.7,44.7,30.19,ESE,112,0.0,0.0,100,0.00,,,0.00,WUHU216DAVISWMX,2013-10-11 11:12:00,
2013-10-11 07:17:00,44.7,44.7,30.19,ESE,112,0.0,0.0,100,0.00,,,0.00,WUHU216DAVISWMX,2013-10-11 11:17:00,
2013-10-11 07:22:00,45.1,45.1,30.19,ESE,112,0.0,0.0,100,0.00,,,0.00,WUHU216DAVISWMX,2013-10-11 11:22:00,
2013-10-11 07:27:00,45.2,45.2,30.19,ESE,112,0.0,0.0,100,0.00,,,0.00,WUHU216DAVISWMX,2013-10-11 11:27:00,
2013-10-11 07:32:00,45.4,45.4,30.19,ESE,112,0.0,0.0,100,0.00,,,0.00,WUHU216DAVISWMX,2013-10-11 11:32:00,
2013-10-11 07:37:00,45.6,45.6,30.20,ESE,112,0.0,0.0,100,0.00,,,0.00,WUHU216DAVISWMX,2013-10-11 11:37:00,
2013-10-11 07:42:00,45.8,45.8,30.19,ESE,112,0.0,0.0,100,0.00,,,0.00,WUHU216DAVISWMX,2013-10-11 11:42:00,
2013-10-11 07:47:00,45.9,45.9,30.19,ESE,112,0.0,0.0,100,0.00,,,0.00,WUHU216DAVISWMX,2013-10-11 11:47:00,
2013-10-11 07:52:00,46.0,46.0,30.20,ESE,112,0.0,0.0,100,0.00,,,0.00,WUHU216DAVISWMX,2013-10-11 11:52:00,
2013-10-11 07:57:00,46.2,46.2,30.20,ESE,112,0.0,0.0,100,0.00,,,0.00,WUHU216DAVISWMX,2013-10-11 11:57:00,
2013-10-11 08:02:00,46.4,46.4,30.20,ESE,112,0.0,0.0,100,0.00,,,0.00,WUHU216DAVISWMX,2013-10-11 12:02:00,
2013-10-11 08:07:00,46.7,46.7,30.20,ESE,112,0.0,0.0,100,0.00,,,0.00,WUHU216DAVISWMX,2013-10-11 12:07:00,
2013-10-11 08:12:00,47.0,47.0,30.20,ESE,112,0.0,0.0,100,0.00,,,0.00,WUHU216DAVISWMX,2013-10-11 12:12:00,
2013-10-11 08:17:00,47.3,47.3,30.20,ESE,112,0.0,0.0,100,0.00,,,0.00,WUHU216DAVISWMX,2013-10-11 12:17:00,
2013-10-11 08:22:00,47.7,47.7,30.20,ESE,112,0.0,0.0,100,0.00,,,0.00,WUHU216DAVISWMX,2013-10-11 12:22:00,
2013-10-11 08:27:00,48.1,48.1,30.20,ESE,112,0.0,0.0,100,0.00,,,0.00,WUHU216DAVISWMX,2013-10-11 12:27:00,
2013-10-11 08:32:00,48.3,48.3,30.20,ESE,112,0.0,0.0,100,0.00,,,0.00,WUHU216DAVISWMX,2013-10-11 12:32:00,
2013-10-11 08:37:00,48.4,48.4,30.20,ESE,112,0.0,0.0,100,0.00,,,0.00,WUHU216DAVISWMX,2013-10-11 12:37:00,
2013-10-11 08:42:00,48.8,48.8,30.20,ESE,112,0.0,0.0,100,0.00,,,0.00,WUHU216DAVISWMX,2013-10-11 12:42:00,
2013-10-11 08:47:00,49.1,49.1,30.20,ESE,112,0.0,0.0,100,0.00,,,0.00,WUHU216DAVISWMX,2013-10-11 12:47:00,
2013-10-11 08:52:00,49.5,49.5,30.20,ESE,112,0.0,0.0,100,0.00,,,0.00,WUHU216DAVISWMX,2013-10-11 12:52:00,
2013-10-11 08:57:00,49.8,49.8,30.20,ESE,112,0.0,0.0,100,0.00,,,0.00,WUHU216DAVISWMX,2013-10-11 12:57:00,
2013-10-11 09:02:00,50.0,50.0,30.20,ESE,112,0.0,0.0,100,0.00,,,0.00,WUHU216DAVISWMX,2013-10-11 13:02:00,
2013-10-11 09:07:00,50.3,50.3,30.20,ESE,112,0.0,0.0,100,0.00,,,0.00,WUHU216DAVISWMX,2013-10-11 13:07:00,
2013-10-11 09:12:00,50.6,50.6,30.20,ESE,112,0.0,0.0,100,0.00,,,0.00,WUHU216DAVISWMX,2013-10-11 13:12:00,
2013-10-11 09:17:00,51.0,51.0,30.20,ESE,112,0.0,0.0,100,0.00,,,0.00,WUHU216DAVISWMX,2013-10-11 13:17:00,
2013-10-11 09:22:00,51.5,51.5,30.20,ESE,112,0.0,0.0,100,0.00,,,0.00,WUHU216DAVISWMX,2013-10-11 13:22:00,
2013-10-11 09:27:00,52.1,52.1,30.20,ESE,112,0.0,0.0,100,0.00,,,0.00,WUHU216DAVISWMX,2013-10-11 13:27:00,
2013-10-11 09:32:00,52.6,52.6,30.20,ESE,112,0.0,0.0,100,0.00,,,0.00,WUHU216DAVISWMX,2013-10-11 13:32:00,
2013-10-11 09:37:00,53.1,53.1,30.20,ESE,112,0.0,0.0,100,0.00,,,0.00,WUHU216DAVISWMX,2013-10-11 13:37:00,
2013-10-11 09:42:00,53.5,53.5,30.20,ESE,112,0.0,0.0,100,0.00,,,0.00,WUHU216DAVISWMX,2013-10-11 13:42:00,
2013-10-11 09:47:00,53.8,53.8,30.20,ESE,112,0.0,0.0,100,0.00,,,0.00,WUHU216DAVISWMX,2013-10-11 13:47:00,
2013-10-11 09:52:00,54.2,54.2,30.20,ESE,112,0.0,0.0,100,0.00,,,0.00,WUHU216DAVISWMX,2013-10-11 13:52:00,
2013-10-11 09:57:00,54.6,54.6,30.20,ESE,112,0.0,0.0,100,0.00,,,0.00,WUHU216DAVISWMX,2013-10-11 13:57:00,
2013-10-11 10:02:00,55.1,55.1,30.20,ESE,112,0.0,0.0,100,0.00,,,0.00,WUHU216DAVISWMX,2013-10-11 14:02:00,
2013-10-11 10:07:00,55.7,55.7,30.20,ESE,112,0.0,0.0,100,0.00,,,0.00,WUHU216DAVISWMX,2013-10-11 14:07:00,
2013-10-11 10:12:00,56.1,55.5,30.20,ESE,112,0.0,0.0,98,0.00,,,0.00,WUHU216DAVISWMX,2013-10-11 14:12:00,
2013-10-11 10:17:00,56.6,55.4,30.20,ESE,112,0.0,0.0,96,0.00,,,0.00,WUHU216DAVISWMX,2013-10-11 14:17:00,
2013-10-11 10:22:00,57.0,55.8,30.20,ESE,112,0.0,0.0,96,0.00,,,0.00,WUHU216DAVISWMX,2013-10-11 14:22:00,
2013-10-11 10:27:00,57.5,55.7,30.20,ESE,112,0.0,0.0,94,0.00,,,0.00,WUHU216DAVISWMX,2013-10-11 14:27:00,
2013-10-11 10:32:00,58.2,56.1,30.20,ENE,65,0.0,0.0,93,0.00,,,0.00,WUHU216DAVISWMX,2013-10-11 14:32:00,
2013-10-11 10:37:00,58.7,56.3,30.19,NNW,332,0.0,0.0,92,0.00,,,0.00,WUHU216DAVISWMX,2013-10-11 14:37:00,
2013-10-11 10:42:00,59.2,56.5,30.19,NNW,332,0.0,0.0,91,0.00,,,0.00,WUHU216DAVISWMX,2013-10-11 14:42:00,
2013-10-11 10:47:00,59.6,56.6,30.19,NNW,332,0.0,0.0,90,0.00,,,0.00,WUHU216DAVISWMX,2013-10-11 14:47:00,
2013-10-11 10:52:00,59.9,56.9,30.19,NNW,332,0.0,0.0,90,0.00,,,0.00,WUHU216DAVISWMX,2013-10-11 14:52:00,
2013-10-11 10:57:00,60.1,56.8,30.19,NNW,332,0.0,0.0,89,0.00,,,0.00,WUHU216DAVISWMX,2013-10-11 14:57:00,
2013-10-11 11:02:00,60.6,57.0,30.19,NNW,332,0.0,0.0,88,0.00,,,0.00,WUHU216DAVISWMX,2013-10-11 15:02:00,
2013-10-11 11:07:00,60.8,56.9,30.19,NNW,332,0.0,0.0,87,0.00,,,0.00,WUHU216DAVISWMX,2013-10-11 15:07:00,
2013-10-11 11:12:00,61.3,57.1,30.19,ESE,106,0.0,0.0,86,0.00,,,0.00,WUHU216DAVISWMX,2013-10-11 15:12:00,
2013-10-11 11:17:00,61.4,57.2,30.19,ENE,59,0.0,0.0,86,0.00,,,0.00,WUHU216DAVISWMX,2013-10-11 15:17:00,
2013-10-11 11:22:00,61.7,57.5,30.19,ENE,76,0.0,0.0,86,0.00,,,0.00,WUHU216DAVISWMX,2013-10-11 15:22:00,
2013-10-11 11:27:00,62.0,57.1,30.19,NE,35,0.0,0.0,84,0.00,,,0.00,WUHU216DAVISWMX,2013-10-11 15:27:00,
2013-10-11 11:32:00,62.5,57.3,30.19,ENE,58,0.0,2.0,83,0.00,,,0.00,WUHU216DAVISWMX,2013-10-11 15:32:00,
2013-10-11 11:37:00,62.5,56.6,30.19,ENE,73,0.0,2.0,81,0.00,,,0.00,WUHU216DAVISWMX,2013-10-11 15:37:00,
2013-10-11 11:42:00,62.8,56.6,30.19,ENE,74,0.0,0.0,80,0.00,,,0.00,WUHU216DAVISWMX,2013-10-11 15:42:00,
2013-10-11 11:47:00,63.1,55.9,30.19,NW,315,0.0,0.0,77,0.00,,,0.00,WUHU216DAVISWMX,2013-10-11 15:47:00,
2013-10-11 11:52:00,63.2,54.9,30.19,North,9,0.0,0.0,74,0.00,,,0.00,WUHU216DAVISWMX,2013-10-11 15:52:00,
2013-10-11 11:57:00,63.3,54.3,30.19,North,9,0.0,0.0,72,0.00,,,0.00,WUHU216DAVISWMX,2013-10-11 15:57:00,
2013-10-11 12:02:00,63.6,54.5,30.19,North,9,0.0,0.0,72,0.00,,,0.00,WUHU216DAVISWMX,2013-10-11 16:02:00,
2013-10-11 12:07:00,63.6,54.2,30.19,East,94,0.0,0.0,71,0.00,,,0.00,WUHU216DAVISWMX,2013-10-11 16:07:00,
2013-10-11 12:12:00,63.7,53.9,30.18,WNW,303,0.0,0.0,70,0.00,,,0.00,WUHU216DAVISWMX,2013-10-11 16:12:00,
2013-10-11 12:17:00,63.9,53.3,30.18,NW,314,0.0,0.0,68,0.00,,,0.00,WUHU216DAVISWMX,2013-10-11 16:17:00,
2013-10-11 12:22:00,64.0,53.4,30.18,NW,313,0.0,0.0,68,0.00,,,0.00,WUHU216DAVISWMX,2013-10-11 16:22:00,
2013-10-11 12:27:00,64.3,53.3,30.17,NW,320,0.0,0.0,67,0.00,,,0.00,WUHU216DAVISWMX,2013-10-11 16:27:00,
2013-10-11 12:32:00,64.4,53.4,30.17,NW,320,0.0,0.0,67,0.00,,,0.00,WUHU216DAVISWMX,2013-10-11 16:32:00,
2013-10-11 12:37:00,64.5,53.1,30.17,ENE,72,0.0,0.0,66,0.00,,,0.00,WUHU216DAVISWMX,2013-10-11 16:37:00,
2013-10-11 12:42:00,64.6,52.3,30.17,ENE,72,0.0,0.0,64,0.00,,,0.00,WUHU216DAVISWMX,2013-10-11 16:42:00,
2013-10-11 12:47:00,64.8,50.7,30.17,SSE,147,0.0,0.0,60,0.00,,,0.00,WUHU216DAVISWMX,2013-10-11 16:47:00,
2013-10-11 12:52:00,64.8,51.2,30.17,ESE,102,0.0,0.0,61,0.00,,,0.00,WUHU216DAVISWMX,2013-10-11 16:52:00,
2013-10-11 12:57:00,65.0,50.0,30.17,ENE,65,0.0,0.0,58,0.00,,,0.00,WUHU216DAVISWMX,2013-10-11 16:57:00,
2013-10-11 13:02:00,65.1,50.6,30.17,ENE,57,0.0,0.0,59,0.00,,,0.00,WUHU216DAVISWMX,2013-10-11 17:02:00,
2013-10-11 13:07:00,65.0,49.5,30.16,NE,55,0.0,0.0,57,0.00,,,0.00,WUHU216DAVISWMX,2013-10-11 17:07:00,
2013-10-11 13:12:00,65.4,50.4,30.16,East,86,0.0,0.0,58,0.00,,,0.00,WUHU216DAVISWMX,2013-10-11 17:12:00,
2013-10-11 13:17:00,65.5,48.0,30.16,East,86,0.0,0.0,53,0.00,,,0.00,WUHU216DAVISWMX,2013-10-11 17:17:00,
2013-10-11 13:22:00,65.8,47.8,30.16,East,85,0.0,0.0,52,0.00,,,0.00,WUHU216DAVISWMX,2013-10-11 17:22:00,
2013-10-11 13:27:00,66.1,48.0,30.16,ENE,75,0.0,0.0,52,0.00,,,0.00,WUHU216DAVISWMX,2013-10-11 17:27:00,
2013-10-11 13:32:00,66.2,48.6,30.15,ENE,70,0.0,0.0,53,0.00,,,0.00,WUHU216DAVISWMX,2013-10-11 17:32:00,
2013-10-11 13:37:00,66.5,49.4,30.15,ENE,74,0.0,0.0,54,0.00,,,0.00,WUHU216DAVISWMX,2013-10-11 17:37:00,
2013-10-11 13:42:00,66.5,48.4,30.15,SW,226,0.0,0.0,52,0.00,,,0.00,WUHU216DAVISWMX,2013-10-11 17:42:00,
2013-10-11 13:47:00,66.8,46.5,30.15,North,0,0.0,0.0,48,0.00,,,0.00,WUHU216DAVISWMX,2013-10-11 17:47:00,
2013-10-11 13:52:00,67.1,47.3,30.15,NE,40,0.0,0.0,49,0.00,,,0.00,WUHU216DAVISWMX,2013-10-11 17:52:00,
2013-10-11 13:57:00,67.4,47.0,30.15,NE,37,0.0,0.0,48,0.00,,,0.00,WUHU216DAVISWMX,2013-10-11 17:57:00,
2013-10-11 14:02:00,67.4,48.2,30.15,NE,50,0.0,0.0,50,0.00,,,0.00,WUHU216DAVISWMX,2013-10-11 18:02:00,
2013-10-11 14:07:00,67.4,48.7,30.15,East,92,0.0,0.0,51,0.00,,,0.00,WUHU216DAVISWMX,2013-10-11 18:07:00,
2013-10-11 14:12:00,67.4,49.2,30.15,East,92,0.0,0.0,52,0.00,,,0.00,WUHU216DAVISWMX,2013-10-11 18:12:00,
2013-10-11 14:17:00,67.5,48.8,30.14,NNE,18,0.0,0.0,51,0.00,,,0.00,WUHU216DAVISWMX,2013-10-11 18:17:00,
2013-10-11 14:22:00,67.7,49.5,30.14,NE,36,0.0,0.0,52,0.00,,,0.00,WUHU216DAVISWMX,2013-10-11 18:22:00,
2013-10-11 14:27:00,68.0,50.3,30.14,South,169,0.0,0.0,53,0.00,,,0.00,WUHU216DAVISWMX,2013-10-11 18:27:00,
2013-10-11 14:32:00,67.8,50.1,30.14,ESE,110,0.0,0.0,53,0.00,,,0.00,WUHU216DAVISWMX,2013-10-11 18:32:00,
2013-10-11 14:37:00,67.8,49.1,30.13,ESE,109,0.0,0.0,51,0.00,,,0.00,WUHU216DAVISWMX,2013-10-11 18:37:00,
2013-10-11 14:42:00,67.7,50.0,30.14,SE,137,0.0,0.0,53,0.00,,,0.00,WUHU216DAVISWMX,2013-10-11 18:42:00,
2013-10-11 14:47:00,67.7,47.3,30.13,SE,142,0.0,0.0,48,0.00,,,0.00,WUHU216DAVISWMX,2013-10-11 18:47:00,
2013-10-11 14:52:00,67.8,46.2,30.13,SE,142,0.0,0.0,46,0.00,,,0.00,WUHU216DAVISWMX,2013-10-11 18:52:00,
2013-10-11 14:57:00,67.8,44.4,30.13,SE,139,0.0,0.0,43,0.00,,,0.00,WUHU216DAVISWMX,2013-10-11 18:57:00,
2013-10-11 15:02:00,67.8,45.6,30.13,SE,141,0.0,0.0,45,0.00,,,0.00,WUHU216DAVISWMX,2013-10-11 19:02:00,
2013-10-11 15:07:00,67.7,43.7,30.13,SE,140,0.0,0.0,42,0.00,,,0.00,WUHU216DAVISWMX,2013-10-11 19:07:00,
2013-10-11 15:12:00,67.9,45.1,30.13,SE,140,0.0,0.0,44,0.00,,,0.00,WUHU216DAVISWMX,2013-10-11 19:12:00,
2013-10-11 15:17:00,68.0,44.0,30.13,SE,137,0.0,0.0,42,0.00,,,0.00,WUHU216DAVISWMX,2013-10-11 19:17:00,
2013-10-11 15:22:00,67.9,43.9,30.13,SE,137,0.0,0.0,42,0.00,,,0.00,WUHU216DAVISWMX,2013-10-11 19:22:00,
2013-10-11 15:27:00,67.8,44.4,30.13,ENE,75,0.0,0.0,43,0.00,,,0.00,WUHU216DAVISWMX,2013-10-11 19:27:00,
2013-10-11 15:32:00,67.6,44.2,30.13,ENE,74,0.0,0.0,43,0.00,,,0.00,WUHU216DAVISWMX,2013-10-11 19:32:00,
2013-10-11 15:37:00,67.6,44.8,30.13,ENE,64,0.0,0.0,44,0.00,,,0.00,WUHU216DAVISWMX,2013-10-11 19:37:00,
2013-10-11 15:42:00,67.7,45.5,30.13,ENE,64,0.0,0.0,45,0.00,,,0.00,WUHU216DAVISWMX,2013-10-11 19:42:00,
2013-10-11 15:47:00,67.5,44.8,30.13,ENE,64,0.0,0.0,44,0.00,,,0.00,WUHU216DAVISWMX,2013-10-11 19:47:00,
2013-10-11 15:52:00,67.5,45.4,30.13,North,1,0.0,0.0,45,0.00,,,0.00,WUHU216DAVISWMX,2013-10-11 19:52:00,
2013-10-11 15:57:00,67.4,47.6,30.13,North,1,0.0,0.0,49,0.00,,,0.00,WUHU216DAVISWMX,2013-10-11 19:57:00,
2013-10-11 16:02:00,67.2,47.4,30.13,North,1,0.0,0.0,49,0.00,,,0.00,WUHU216DAVISWMX,2013-10-11 20:02:00,
2013-10-11 16:07:00,67.0,48.9,30.13,North,1,0.0,0.0,52,0.00,,,0.00,WUHU216DAVISWMX,2013-10-11 20:07:00,
2013-10-11 16:12:00,67.0,49.4,30.13,North,1,0.0,0.0,53,0.00,,,0.00,WUHU216DAVISWMX,2013-10-11 20:12:00,
2013-10-11 16:17:00,67.1,50.0,30.13,North,1,0.0,0.0,54,0.00,,,0.00,WUHU216DAVISWMX,2013-10-11 20:17:00,
2013-10-11 16:22:00,67.1,50.5,30.13,ENE,77,0.0,0.0,55,0.00,,,0.00,WUHU216DAVISWMX,2013-10-11 20:22:00,
2013-10-11 16:27:00,67.3,51.7,30.13,ENE,77,0.0,0.0,57,0.00,,,0.00,WUHU216DAVISWMX,2013-10-11 20:27:00,
2013-10-11 16:32:00,67.3,51.7,30.14,ESE,103,0.0,0.0,57,0.00,,,0.00,WUHU216DAVISWMX,2013-10-11 20:32:00,
2013-10-11 16:37:00,67.1,50.0,30.14,ESE,103,0.0,0.0,54,0.00,,,0.00,WUHU216DAVISWMX,2013-10-11 20:37:00,
2013-10-11 16:42:00,67.0,49.4,30.13,ESE,102,0.0,0.0,53,0.00,,,0.00,WUHU216DAVISWMX,2013-10-11 20:42:00,
2013-10-11 16:47:00,66.8,49.7,30.13,ESE,103,0.0,0.0,54,0.00,,,0.00,WUHU216DAVISWMX,2013-10-11 20:47:00,
2013-10-11 16:52:00,66.7,50.6,30.13,ESE,103,0.0,0.0,56,0.00,,,0.00,WUHU216DAVISWMX,2013-10-11 20:52:00,
2013-10-11 16:57:00,66.4,50.3,30.14,ESE,102,0.0,0.0,56,0.00,,,0.00,WUHU216DAVISWMX,2013-10-11 20:57:00,
2013-10-11 17:02:00,66.2,51.6,30.13,ESE,102,0.0,0.0,59,0.00,,,0.00,WUHU216DAVISWMX,2013-10-11 21:02:00,
2013-10-11 17:07:00,65.8,51.2,30.13,ESE,102,0.0,0.0,59,0.00,,,0.00,WUHU216DAVISWMX,2013-10-11 21:07:00,
2013-10-11 17:12:00,65.6,51.9,30.13,ESE,102,0.0,0.0,61,0.00,,,0.00,WUHU216DAVISWMX,2013-10-11 21:12:00,
2013-10-11 17:17:00,65.2,52.9,30.14,ESE,103,0.0,0.0,64,0.00,,,0.00,WUHU216DAVISWMX,2013-10-11 21:17:00,
2013-10-11 17:22:00,64.9,53.4,30.14,ESE,102,0.0,0.0,66,0.00,,,0.00,WUHU216DAVISWMX,2013-10-11 21:22:00,
2013-10-11 17:27:00,64.5,53.5,30.14,ESE,103,0.0,0.0,67,0.00,,,0.00,WUHU216DAVISWMX,2013-10-11 21:27:00,
2013-10-11 17:32:00,64.1,54.3,30.14,ESE,103,0.0,0.0,70,0.00,,,0.00,WUHU216DAVISWMX,2013-10-11 21:32:00,
2013-10-11 17:37:00,63.7,54.3,30.14,ESE,102,0.0,0.0,71,0.00,,,0.00,WUHU216DAVISWMX,2013-10-11 21:37:00,
2013-10-11 17:43:00,63.4,54.4,30.14,ESE,102,0.0,0.0,72,0.00,,,0.00,WUHU216DAVISWMX,2013-10-11 21:43:00,
2013-10-11 17:48:00,63.0,54.3,30.14,ESE,103,0.0,0.0,73,0.00,,,0.00,WUHU216DAVISWMX,2013-10-11 21:48:00,
2013-10-11 17:53:00,62.7,54.0,30.14,ESE,102,0.0,0.0,73,0.00,,,0.00,WUHU216DAVISWMX,2013-10-11 21:53:00,
2013-10-11 17:58:00,62.4,54.5,30.14,ESE,103,0.0,0.0,75,0.00,,,0.00,WUHU216DAVISWMX,2013-10-11 21:58:00,
2013-10-11 18:03:00,62.0,54.4,30.15,ESE,103,0.0,0.0,76,0.00,,,0.00,WUHU216DAVISWMX,2013-10-11 22:03:00,
2013-10-11 18:08:00,61.5,54.3,30.15,ESE,103,0.0,0.0,77,0.00,,,0.00,WUHU216DAVISWMX,2013-10-11 22:08:00,
2013-10-11 18:13:00,61.1,53.9,30.15,ESE,102,0.0,0.0,77,0.00,,,0.00,WUHU216DAVISWMX,2013-10-11 22:13:00,
2013-10-11 18:18:00,60.7,53.9,30.15,ESE,103,0.0,0.0,78,0.00,,,0.00,WUHU216DAVISWMX,2013-10-11 22:18:00,
2013-10-11 18:23:00,60.3,53.8,30.15,ESE,103,0.0,0.0,79,0.00,,,0.00,WUHU216DAVISWMX,2013-10-11 22:23:00,
2013-10-11 18:28:00,60.0,53.9,30.15,ESE,103,0.0,0.0,80,0.00,,,0.00,WUHU216DAVISWMX,2013-10-11 22:28:00,
2013-10-11 18:33:00,59.6,53.8,30.15,ESE,103,0.0,0.0,81,0.00,,,0.00,WUHU216DAVISWMX,2013-10-11 22:33:00,
2013-10-11 18:38:00,59.4,53.6,30.15,ESE,102,0.0,0.0,81,0.00,,,0.00,WUHU216DAVISWMX,2013-10-11 22:38:00,
2013-10-11 18:43:00,59.2,53.7,30.16,ESE,102,0.0,0.0,82,0.00,,,0.00,WUHU216DAVISWMX,2013-10-11 22:43:00,
2013-10-11 18:48:00,58.9,53.4,30.16,ESE,102,0.0,0.0,82,0.00,,,0.00,WUHU216DAVISWMX,2013-10-11 22:48:00,
2013-10-11 18:53:00,58.7,53.6,30.16,ESE,103,0.0,0.0,83,0.00,,,0.00,WUHU216DAVISWMX,2013-10-11 22:53:00,
2013-10-11 18:58:00,58.3,53.5,30.16,ESE,102,0.0,0.0,84,0.00,,,0.00,WUHU216DAVISWMX,2013-10-11 22:58:00,
2013-10-11 19:03:00,58.0,53.2,30.16,ESE,103,0.0,0.0,84,0.00,,,0.00,WUHU216DAVISWMX,2013-10-11 23:03:00,
2013-10-11 19:08:00,57.8,53.3,30.16,ESE,103,0.0,0.0,85,0.00,,,0.00,WUHU216DAVISWMX,2013-10-11 23:08:00,
2013-10-11 19:13:00,57.6,53.4,30.16,ESE,102,0.0,0.0,86,0.00,,,0.00,WUHU216DAVISWMX,2013-10-11 23:13:00,
2013-10-11 19:18:00,57.4,53.2,30.16,ESE,102,0.0,0.0,86,0.00,,,0.00,WUHU216DAVISWMX,2013-10-11 23:18:00,
2013-10-11 19:23:00,57.1,52.9,30.16,ESE,103,0.0,0.0,86,0.00,,,0.00,WUHU216DAVISWMX,2013-10-11 23:23:00,
2013-10-11 19:28:00,57.0,53.5,30.16,ESE,103,0.0,0.0,88,0.00,,,0.00,WUHU216DAVISWMX,2013-10-11 23:28:00,
2013-10-11 19:33:00,56.8,53.3,30.16,ESE,103,0.0,0.0,88,0.00,,,0.00,WUHU216DAVISWMX,2013-10-11 23:33:00,
2013-10-11 19:38:00,56.8,53.3,30.16,ESE,103,0.0,0.0,88,0.00,,,0.00,WUHU216DAVISWMX,2013-10-11 23:38:00,
2013-10-11 19:43:00,56.6,53.1,30.16,ESE,103,0.0,0.0,88,0.00,,,0.00,WUHU216DAVISWMX,2013-10-11 23:43:00,
2013-10-11 19:48:00,56.4,53.2,30.16,ESE,102,0.0,0.0,89,0.00,,,0.00,WUHU216DAVISWMX,2013-10-11 23:48:00,
2013-10-11 19:53:00,56.2,52.7,30.17,ESE,102,0.0,0.0,88,0.00,,,0.00,WUHU216DAVISWMX,2013-10-11 23:53:00,
2013-10-11 19:58:00,56.1,52.9,30.17,ESE,102,0.0,0.0,89,0.00,,,0.00,WUHU216DAVISWMX,2013-10-11 23:58:00,
2013-10-11 20:03:00,56.0,52.8,30.17,ESE,102,0.0,0.0,89,0.00,,,0.00,WUHU216DAVISWMX,2013-10-12 00:03:00,
2013-10-11 20:08:00,55.8,52.9,30.17,ESE,103,0.0,0.0,90,0.00,,,0.00,WUHU216DAVISWMX,2013-10-12 00:08:00,
2013-10-11 20:13:00,55.7,53.1,30.16,ESE,103,0.0,0.0,91,0.00,,,0.00,WUHU216DAVISWMX,2013-10-12 00:13:00,
2013-10-11 20:18:00,55.5,52.9,30.17,ESE,103,0.0,0.0,91,0.00,,,0.00,WUHU216DAVISWMX,2013-10-12 00:18:00,
2013-10-11 20:23:00,55.4,53.1,30.17,ESE,103,0.0,0.0,92,0.00,,,0.00,WUHU216DAVISWMX,2013-10-12 00:23:00,
2013-10-11 20:28:00,55.3,53.0,30.17,ESE,103,0.0,0.0,92,0.00,,,0.00,WUHU216DAVISWMX,2013-10-12 00:28:00,
2013-10-11 20:33:00,55.1,53.1,30.17,ESE,102,0.0,0.0,93,0.00,,,0.00,WUHU216DAVISWMX,2013-10-12 00:33:00,
2013-10-11 20:38:00,55.1,53.1,30.17,ESE,103,0.0,0.0,93,0.00,,,0.00,WUHU216DAVISWMX,2013-10-12 00:38:00,
2013-10-11 20:43:00,55.0,53.0,30.17,ESE,103,0.0,0.0,93,0.00,,,0.00,WUHU216DAVISWMX,2013-10-12 00:43:00,
2013-10-11 20:48:00,54.8,52.8,30.18,ESE,103,0.0,0.0,93,0.00,,,0.00,WUHU216DAVISWMX,2013-10-12 00:48:00,
2013-10-11 20:53:00,54.8,53.1,30.18,ESE,102,0.0,0.0,94,0.00,,,0.00,WUHU216DAVISWMX,2013-10-12 00:53:00,
2013-10-11 20:58:00,54.7,53.0,30.18,ESE,103,0.0,0.0,94,0.00,,,0.00,WUHU216DAVISWMX,2013-10-12 00:58:00,
2013-10-11 21:03:00,54.6,52.9,30.18,ESE,103,0.0,0.0,94,0.00,,,0.00,WUHU216DAVISWMX,2013-10-12 01:03:00,
2013-10-11 21:08:00,54.5,53.1,30.18,ESE,102,0.0,0.0,95,0.00,,,0.00,WUHU216DAVISWMX,2013-10-12 01:08:00,
2013-10-11 21:13:00,54.5,53.1,30.18,ESE,102,0.0,0.0,95,0.00,,,0.00,WUHU216DAVISWMX,2013-10-12 01:13:00,
2013-10-11 21:18:00,54.4,53.0,30.18,ESE,103,0.0,0.0,95,0.00,,,0.00,WUHU216DAVISWMX,2013-10-12 01:18:00,
2013-10-11 21:23:00,54.3,52.9,30.18,ESE,102,0.0,0.0,95,0.00,,,0.00,WUHU216DAVISWMX,2013-10-12 01:23:00,
2013-10-11 21:28:00,54.1,52.9,30.18,ESE,102,0.0,0.0,96,0.00,,,0.00,WUHU216DAVISWMX,2013-10-12 01:28:00,
2013-10-11 21:33:00,54.0,52.9,30.18,ESE,103,0.0,0.0,96,0.00,,,0.00,WUHU216DAVISWMX,2013-10-12 01:33:00,
2013-10-11 21:38:00,53.9,52.8,30.18,ESE,102,0.0,0.0,96,0.00,,,0.00,WUHU216DAVISWMX,2013-10-12 01:38:00,
2013-10-11 21:43:00,53.7,52.8,30.19,ESE,102,0.0,0.0,97,0.00,,,0.00,WUHU216DAVISWMX,2013-10-12 01:43:00,
2013-10-11 21:48:00,53.7,52.8,30.19,ESE,102,0.0,0.0,97,0.00,,,0.00,WUHU216DAVISWMX,2013-10-12 01:48:00,
2013-10-11 21:53:00,53.6,52.7,30.19,ESE,103,0.0,0.0,97,0.00,,,0.00,WUHU216DAVISWMX,2013-10-12 01:53:00,
2013-10-11 21:58:00,53.5,52.6,30.19,ESE,103,0.0,0.0,97,0.00,,,0.00,WUHU216DAVISWMX,2013-10-12 01:58:00,
2013-10-11 22:03:00,53.3,52.4,30.19,ESE,102,0.0,0.0,97,0.00,,,0.00,WUHU216DAVISWMX,2013-10-12 02:03:00,
2013-10-11 22:08:00,53.2,52.3,30.19,ESE,103,0.0,0.0,97,0.00,,,0.00,WUHU216DAVISWMX,2013-10-12 02:08:00,
2013-10-11 22:13:00,53.1,52.5,30.19,ESE,102,0.0,0.0,98,0.00,,,0.00,WUHU216DAVISWMX,2013-10-12 02:13:00,
2013-10-11 22:18:00,52.8,52.2,30.20,ESE,103,0.0,0.0,98,0.00,,,0.00,WUHU216DAVISWMX,2013-10-12 02:18:00,
2013-10-11 22:23:00,52.7,52.1,30.20,ESE,102,0.0,0.0,98,0.00,,,0.00,WUHU216DAVISWMX,2013-10-12 02:23:00,
2013-10-11 22:28:00,52.7,52.1,30.19,ESE,102,0.0,0.0,98,0.00,,,0.00,WUHU216DAVISWMX,2013-10-12 02:28:00,
2013-10-11 22:33:00,52.7,52.4,30.19,ESE,103,0.0,0.0,99,0.00,,,0.00,WUHU216DAVISWMX,2013-10-12 02:33:00,
2013-10-11 22:38:00,52.5,52.2,30.19,ESE,102,0.0,0.0,99,0.00,,,0.00,WUHU216DAVISWMX,2013-10-12 02:38:00,
2013-10-11 22:43:00,52.3,52.0,30.19,ESE,103,0.0,0.0,99,0.00,,,0.00,WUHU216DAVISWMX,2013-10-12 02:43:00,
2013-10-11 22:48:00,52.2,51.9,30.19,ESE,102,0.0,0.0,99,0.00,,,0.00,WUHU216DAVISWMX,2013-10-12 02:48:00,
2013-10-11 22:53:00,52.2,52.2,30.19,ESE,103,0.0,0.0,100,0.00,,,0.00,WUHU216DAVISWMX,2013-10-12 02:53:00,
2013-10-11 22:58:00,52.0,52.0,30.19,ESE,102,0.0,0.0,100,0.00,,,0.00,WUHU216DAVISWMX,2013-10-12 02:58:00,
2013-10-11 23:03:00,51.9,51.9,30.19,ESE,103,0.0,0.0,100,0.00,,,0.00,WUHU216DAVISWMX,2013-10-12 03:03:00,
2013-10-11 23:08:00,51.8,51.8,30.19,ESE,103,0.0,0.0,100,0.00,,,0.00,WUHU216DAVISWMX,2013-10-12 03:08:00,
2013-10-11 23:13:00,51.6,51.6,30.19,ESE,103,0.0,0.0,100,0.00,,,0.00,WUHU216DAVISWMX,2013-10-12 03:13:00,
2013-10-11 23:18:00,51.4,51.4,30.19,ESE,103,0.0,0.0,100,0.00,,,0.00,WUHU216DAVISWMX,2013-10-12 03:18:00,
2013-10-11 23:23:00,51.2,51.2,30.19,ESE,103,0.0,0.0,100,0.00,,,0.00,WUHU216DAVISWMX,2013-10-12 03:23:00,
2013-10-11 23:28:00,51.0,51.0,30.19,ESE,102,0.0,0.0,100,0.00,,,0.00,WUHU216DAVISWMX,2013-10-12 03:28:00,
2013-10-11 23:33:00,50.8,50.8,30.19,ESE,103,0.0,0.0,100,0.00,,,0.00,WUHU216DAVISWMX,2013-10-12 03:33:00,
2013-10-11 23:38:00,50.6,50.6,30.19,ESE,102,0.0,0.0,100,0.00,,,0.00,WUHU216DAVISWMX,2013-10-12 03:38:00,
2013-10-11 23:43:00,50.5,50.5,30.19,ESE,102,0.0,0.0,100,0.00,,,0.00,WUHU216DAVISWMX,2013-10-12 03:43:00,
2013-10-11 23:48:00,50.3,50.3,30.19,ESE,103,0.0,0.0,100,0.00,,,0.00,WUHU216DAVISWMX,2013-10-12 03:48:00,
2013-10-11 23:53:00,50.1,50.1,30.19,ESE,103,0.0,0.0,100,0.00,,,0.00,WUHU216DAVISWMX,2013-10-12 03:53:00,
2013-10-11 23:58:00,50.0,50.0,30.19,ESE,103,0.0,0.0,100,0.00,,,0.00,WUHU216DAVISWMX,2013-10-12 03:58:00,